Overview Statistics Trail Chart Weather Telemetry Raw packets
 

This is the latest recevied weather packets stored in our database for station/object OE5MMP-13. If no packets are shown the sender has not sent any weather packets the latest 10 day(s).

<< 27 28 29 30 31 32 33 >>
Time Temp. Humidity Pressure Rain* Wind** Luminosity Snow
1788269590 22.78° C 53% 1021.9 hPa 0 mm - 581 W/m² -
1788268990 22.22° C 56% 1022 hPa 0 mm - 548 W/m² -
1788268390 22.22° C 55% 1022 hPa 0 mm - 401 W/m² -
1788267790 22.78° C 52% 1022.3 hPa 0 mm - 718 W/m² -
1788267190 22.22° C 54% 1022.2 hPa 0 mm - 698 W/m² -
1788266590 22.22° C 54% 1022.3 hPa 0 mm - 703 W/m² -
1788265990 22.22° C 58% 1022.4 hPa 0 mm - 740 W/m² -
1788265389 21.67° C 56% 1022.5 hPa 0 mm - 222 W/m² -
1788264808 21.67° C 56% 1022.5 hPa 0 mm - 174 W/m² -
1788264208 21.67° C 56% 1022.6 hPa 0 mm - 139 W/m² -
1788263608 22.22° C 55% 1022.7 hPa 0 mm - 318 W/m² -
1788263008 21.67° C 58% 1022.8 hPa 0 mm - 803 W/m² -
1788262408 21.67° C 57% 1022.8 hPa 0 mm - 403 W/m² -
1788261807 21.11° C 56% 1022.8 hPa 0 mm - 823 W/m² -
1788261208 21.11° C 56% 1022.8 hPa 0 mm - 145 W/m² -
1788260608 21.67° C 57% 1022.8 hPa 0 mm - 861 W/m² -
1788260008 21.11° C 59% 1022.8 hPa 0 mm - 225 W/m² -
1788259408 21.11° C 58% 1022.9 hPa 0 mm - 874 W/m² -
1788258807 21.11° C 60% 1022.9 hPa 0 mm - 780 W/m² -
1788258207 21.11° C 58% 1022.8 hPa 0 mm - 860 W/m² -
1788257607 20.56° C 59% 1022.8 hPa 0 mm - 827 W/m² -
1788257007 20.56° C 59% 1022.9 hPa 0 mm - 819 W/m² -
1788256407 20.56° C 60% 1022.8 hPa 0 mm - 144 W/m² -
1788255807 20.56° C 60% 1022.8 hPa 0 mm - 759 W/m² -
1788255220 20.56° C 59% 1022.7 hPa 0 mm - 784 W/m² -

* Rain latest hour (hover to see other rain measurements)
** Current wind speed in m/s (hover to see current wind gust speed)